Lid_Strength_Index
-1 -1 -1 -1 -1 -1 -1 -1 -1 -0 -0 -0 -0 -0 -0 -1 -1 -1 -1 -1 -1 -1 -1 -1 -1 -1 -1 -1 -1 -1 -1 -1 -1 -1 -1 -2 -1 -2 -2 -1 -1 -1 -1
-1 -0 -0 -0 -0 -1 -1 -1 -0 -0 -0 -0 0 -0 -1 -1 -0 -1 -1 -1 -1 -1 -1 -1 -1 -1 -1 -1 -1 -1 -1 -1 -1 -1 -1 -2 -2 -2 -2 -2 -1 -1 -0
-1 -1 -0 -0 -1 -2 -1 -0 -1 -0 -0 -0 0 -0 -0 -0 -0 -1 -1 -1 -1 -2 -2 -1 -1 -1 -1 -1 -1 -1 -1 -1 -1 -1 -1 -1 -1 -2 -2 -1 -1 -0 0
-1 -1 -0 -0 -1 -1 -1 -0 0 0 1 1 1 -0 -0 -0 -0 -1 -1 -1 -1 -1 -1 -2 -1 -1 -1 -1 -1 -1 -1 -1 -1 -1 -1 -1 -2 -1 -1 -1 -1 -0 1
-1 -0 -0 -0 -1 -0 -0 0 0 0 1 1 0 -0 -0 -0 -0 -0 0 -1 -2 -2 -1 -1 -1 -1 -1 -1 -1 -1 -1 -1 -1 -1 -1 -2 -2 -1 -1 -1 0 0 0
-1 -0 -0 -0 -1 -0 0 0 0 1 0 1 1 1 0 0 -0 0 0 -1 -1 -1 -2 -1 -1 -1 -1 -1 -1 -1 -1 -1 -1 -1 -1 -1 -2 -2 -2 -1 0 0 1
-1 -0 -0 -0 -0 0 0 -0 1 1 1 -0 1 1 1 0 -0 0 -0 -0 -0 -1 -1 -1 -1 -1 -1 -1 -1 -1 -1 -1 -2 -2 -1 -1 -1 -2 -2 -1 -0 1 1
-1 -0 -0 -0 -0 0 0 0 0 1 1 -0 2 2 5 3 1 0 0 0 -0 -1 -0 -1 -1 -2 -1 -1 -1 -1 -1 -2 -2 -2 -1 -1 -1 -2 -2 -2 0 1 1
-1 -1 -0 -0 -0 -0 1 0 0 1 2 1 1 2 5 6 3 1 1 0 -0 -0 -0 -1 -1 -1 -1 -1 -1 -1 -1 -1 -2 -2 -1 -1 -1 -0 -0 -0 1 1 1
-1 -1 -1 -0 -0 -0 0 0 -0 1 1 2 1 1 1 2 5 5 1 1 -0 0 -0 -0 -1 -1 -1 -1 -1 -1 -0 -1 -1 -2 -1 -0 0 1 1 1 0 0 1
-1 -1 -1 -1 -0 -0 -1 -0 -0 0 0 1 2 1 2 2 2 4 5 3 1 0 -0 0 -1 -1 -1 -1 -1 -1 -0 -0 -1 -1 -0 0 0 0 1 0 0 0 0
-0 -0 -1 -1 -1 -1 -0 -0 -0 -0 0 0 0 1 2 3 3 3 4 4 4 2 1 0 0 -1 -0 -0 -1 -0 0 0 0 1 1 0 0 1 -0 0 0 0 -0
0 0 -1 -1 -1 -1 -0 -1 -0 -0 -0 1 0 1 0 1 1 1 3 4 4 3 2 0 0 -0 -1 -0 -0 -0 0 1 2 2 2 1 0 -0 -0 -0 -0 -1 -0
0 -1 -1 -1 -0 -0 -0 -1 -0 -0 -0 -0 0 0 0 0 0 0 2 3 5 4 3 3 0 1 -1 -0 0 1 1 2 2 3 2 2 1 1 0 -0 -0 -1 -1
0 -0 -0 -0 -0 -0 -0 -0 -0 0 0 0 0 -0 0 0 0 0 0 1 3 6 5 3 3 1 0 0 1 2 1 1 1 3 3 3 2 2 1 1 1 0 -0
-0 -0 -0 -0 -0 -0 -0 0 0 0 1 1 0 1 1 0 1 0 1 1 1 3 5 2 2 2 1 1 1 1 2 2 3 3 3 3 2 2 2 2 1 0 0
-0 0 -0 0 0 0 0 0 0 1 1 1 1 1 1 1 1 1 1 1 2 2 4 3 2 2 2 2 2 1 1 2 2 3 3 3 3 3 2 2 2 1 0
-0 -0 -0 0 1 1 0 1 1 1 1 2 2 1 1 1 1 1 1 2 2 2 3 4 3 2 3 2 2 2 2 1 2 3 3 3 3 3 3 4 3 2 2
-0 -0 -0 0 1 1 1 1 1 1 1 1 1 2 2 1 2 2 2 2 2 2 2 3 3 3 3 2 3 2 2 2 1 3 4 4 5 5 5 5 4 4 5
0 0 -0 1 0 0 1 1 1 1 1 1 1 1 1 1 2 2 2 2 2 2 2 3 3 3 3 3 3 3 3 3 3 2 4 4 5 6 4 4 4 6 7
0 0 1 1 0 0 1 1 1 1 1 1 1 1 0 1 2 2 1 1 2 2 3 3 3 3 4 3 4 3 4 3 2 2 4 4 3 2 3 5 6 6 6
0 0 1 1 0 1 6 5 4 0 1 1 1 1 0 1 3 5 5 4 2 2 3 3 3 4 3 3 3 3 3 3 3 1 2 0 0 2 3 6 7 7 7
1 1 1 1 1 0 5 6 6 0 1 1 1 1 1 0 1 2 6 6 6 6 4 2 3 3 3 3 3 2 2 2 2 0 0 3 1 4 5 7 7 8 8
0 0 1 1 1 1 7 8 8 0 0 1 0 0 1 1 1 1 1 1 2 2 1 1 2 2 2 1 1 1 0 1 0 0 -1 4 2 4 5 7 8 8 8
1 1 1 1 1 1 8 9 6 0 1 1 1 0 0 1 8 6 1 2 3 4 6 6 7 7 8 5 3 0 2 2 3 2 -0 1 2 3 4 6 7 8 8
1 1 1 1 3 1 9 9 4 1 2 1 1 1 7 2 9 7 1 1 2 3 2 2 2 4 4 3 6 -1 0 2 2 3 0 1 1 2 4 4 6 8 8